COSMOS 2369

Satellite information

Favourite Embed

Satellite Type and Status

PAYLOADIN ORBIT

Key statistics

Satellite COSMOS 2369 at a glance.

Uptime

9286

Days in orbit

Revolutions

≈ 14.1

Per day

Orbit

LEO

Low Earth Orbit

Inclination

71.0

Latest

Satellite identification and parameters

Extended collection of information and parameters for COSMOS 2369.

Object identification

Identified? True

Debris? False

Object name: COSMOS 2369

International designator: 2000-006A

Object number (NORAD): 26069

Object ID (CCSDS): 26069

Country: COMMONWEALTH OF INDEPENDENT STATES (CIS)

Current information (Y/N): Y

RCS size: LARGE

Orbital parameters

Period: 101.852 minutes

Inclination: 70.996 deg

SMA: 7224.463 km

Apoapsis: 852.703 km

Periapsis: 839.952 km

RAAN: 318.1215 deg

Eccentricy: 0.0008825

Argument of periapsis: 96.2407 deg

Mean anomaly: 263.972 deg

Mean motion: 14.13821053 rev/day

Mean motion (dot): -0.00000265 rev/day2

B* drag term: -0.00011497 1/REarth

Two-line elements (TLE)

Creation date: July 5, 2025, 2:36 p.m.

Reference frame: TEME

Reference center: EARTH

Epoch: July 5, 2025, 1:44 p.m. UTC

TLE line 0: 0 COSMOS 2369

TLE line 1: 1 26069U 00006A 25186.57269442 -.00000265 00000-0 -11497-3 0 9990

TLE line 2: 2 26069 70.9960 318.1215 0008825 96.2407 263.9720 14.13821053311617

Live tracking on map

Real-time ground track for satellite COSMOS 2369.

In-orbit conjunctions

A list of the most updated potential collisions computed for object COSMOS 2369.

Target Orbit TCA Probability of collision Miss distance Type
NOAA 16 DEB SSO 2025-06-08 08:21:54 0.0001171587 606.0 (m) DEBRIS
THORAD AGENA D DEB SSO 2025-03-31 10:38:17 0.0001332832 511.0 (m) DEBRIS
THOR ABLESTAR DEB LEO 2025-03-29 11:45:47 0.0001006699 453.0 (m) DEBRIS
FENGYUN 1C DEB SSO 2025-01-01 22:15:36 0.001012057 915.0 (m) DEBRIS
CZ-6A DEB SSO 2024-11-18 15:12:22 0.0005530341 703.0 (m) DEBRIS

Associated space launch

Second generation ELING satellite

COSMOS 2369 was lifted into orbit during the mission ‘Zenit-2 | Tselina-2 21’, on board a Zenit-2 space rocket.

The launch took place on Feb. 3, 2000, 9:26 a.m. from 45/1.

For more information about the launch, click the button.

Launch to space Zenit-2 | Tselina-2 21
Zenit-2 | Tselina-2 21

Agency: N/A

Status: Launch Successful

Launch date: Feb. 3, 2000, 9:26 a.m. UTC

Rocket: Zenit-2

Launch pad: 45/1

Location: Baikonur Cosmodrome, Republic of Kazakhstan

...

Latest news about this satellite

There are no fresh news available about this satellite. Check back as we update our databases every day.


Newsletter sign-up

Weekly statistics, charts and insights to help you stay on top of the space industry.